User: anonymous   Login
Location: NJAA Observatory
(40.6819°N, 74.8979°W)
Time: 20:55:54
(UTC-04:00)
Language:

Iridium 4 - Orbit

View from above orbital plane
View from above orbital plane
View from above satellite
View from above satellite

Ground track
Ground track

The orbit data is extracted from the following two-line orbital elements,

1 24796U 97020E   16209.31252465  .00000098  00000-0  27535-4 0  9995
2 24796  86.3955  93.9004 0002274  85.5335  47.8982 14.35092772  6717
Epoch (UTC): 27 July 2016 07:30:02
Eccentricity: 0.0002274
inclination: 86.3955°
perigee height: 773 km
apogee height: 776 km
right ascension of ascending node: 93.9004°
argument of perigee: 85.5335°
revolutions per day: 14.35092772
mean anomaly at epoch: 47.8982°
orbit number at epoch: 671

The dashed part of the orbit path shows where the satellite is in the earth's shadow,  

DLR